Regional Weather Roundup
Issued by NWS Sioux Falls, SD

Home | Current Version | Previous Version | Graphics & Text | Print | Product List | Glossary Off
Versions: 1 2 3 4 5 6 7 8 9 10 11 12 13 14 15 16 17 18 19 20 21 22 23 24 25 26 27 28 29 30 31 32 33 34 35 36 37 38 39 40 41 42 43 44 45 46 47 48 49 50

000
ASUS43 KFSD 180802
RWRFSD

WEATHER ROUNDUP FOR SE SOUTH DAKOTA/SW MINNESOTA/NW IOWA
NATIONAL WEATHER SERVICE SIOUX FALLS SD
300 AM CDT FRI APR 18 2014

NOTE: "FAIR" INDICATES FEW OR NO CLOUDS BELOW 12,000 FEET WITH NO
SIGNIFICANT WEATHER AND OR OBSTRUCTIONS TO VISIBILITY.


SDZ038>040-050-052>070-180900-
SOUTHEAST SOUTH DAKOTA

CITY           SKY/WX    TMP DP  RH WIND       PRES   REMARKS
CHAMBERLAIN      N/A     38  25  59 SE14      30.11F
HURON          MOCLDY    33  24  69 SE13      30.19S WCI  24
MADISON        FAIR      30  28  93 SE8       30.22F WCI  23
MITCHELL         N/A     36  27  69 MISG      30.20F
SIOUX FALLS    CLOUDY    33  27  78 E9        30.24F WCI  25
WINNER         FAIR      44  26  49 S21G29    30.04F
YANKTON        PTCLDY    34  25  69 E8        30.22F WCI  27
$$

MNZ071-072-080-081-089-090-097-098-180900-
SOUTHWEST MINNESOTA

CITY           SKY/WX    TMP DP  RH WIND       PRES   REMARKS
FAIRMONT       PTCLDY    28  25  86 CALM      30.32S
JACKSON        MOCLDY    32  28  86 E6        30.28S WCI  26
LUVERNE        CLOUDY    34  30  86 E3        30.26F
MARSHALL       MOCLDY    32  25  74 SE8       30.27S WCI  25
MONTEVIDEO     CLOUDY    30  25  80 SW3       30.30R
PIPESTONE      CLOUDY    32  28  86 SE7       30.24S WCI  26
REDWOOD FALLS  CLOUDY    31  28  89 E3        30.29F
TRACY          CLOUDY    33  28  84 CALM      30.28S
WINDOM         MOCLDY    30  28  93 E3        30.28F
WORTHINGTON    MOCLDY    30  25  80 E6        30.28S WCI  24
$$

IAZ001>003-012>014-020>022-031-032-NEZ013-014-SDZ071-180900-
NORTHWEST IOWA

CITY           SKY/WX    TMP DP  RH WIND       PRES   REMARKS
CHEROKEE       CLEAR     30  27  89 CALM      30.28S
DENISON        MOCLDY    34  30  86 E7        30.25F WCI  28
ESTHERVILLE    PTCLDY    26  26 100 SE7       30.28F FOG     WCI  18
SHELDON        CLOUDY    32  28  86 E10       30.25F WCI  24
SIOUX CITY     CLEAR     32  25  75 SE6       30.25F WCI  26
SPENCER        PTCLDY    30  27  88 SE6       30.28S WCI  24
STORM LAKE     CLEAR     30  28  93 SE9       30.27F WCI  22
$$

ABBREVIATIONS USED IN REMARKS
   TC - TEMPERATURE IN CELSIUS
  WCI - WIND CHILL INDEX
   HX - HEAT INDEX
  VSB - VISIBILITY




USA.gov is the U.S. government's official web portal to all federal, state and local government web resources and services.